EW6098 Weather Reports


Display with metric or nautical units.
time (UTC)temp
F
wind
direction
speed
MPH
gust
MPH
rain 1hr
in
rain 24hr
in
rain mn
in
humidity
%
barometer
mb
20260507221522 48 0.0 0.0 0.00 0.00 0.00 83 1012.0
20260507220531 48 322 0.0 2.0 0.00 0.00 0.00 83 1012.0
20260507215519 48 0.0 0.0 0.00 0.00 0.00 83 1012.1
20260507214548 49 0.0 0.0 0.00 0.00 0.00 82 1012.0
20260507213516 49 333 0.0 2.0 0.00 0.00 0.00 82 1012.0
20260507212525 49 329 0.0 1.0 0.00 0.00 0.00 81 1012.1
20260507211533 49 335 0.0 2.0 0.00 0.00 0.00 80 1012.0
20260507210522 50 0.0 0.0 0.00 0.00 0.00 78 1012.1
20260507205530 51 345 0.0 2.0 0.00 0.00 0.00 76 1012.0
20260507204518 52 263 1.0 6.0 0.00 0.00 0.00 75 1011.9
20260507203546 52 22 0.0 1.0 0.00 0.00 0.00 74 1011.9
20260507202535 53 281 1.0 3.0 0.00 0.00 0.00 73 1011.7
20260507201524 53 284 2.0 7.0 0.00 0.00 0.00 73 1011.7
20260507200553 53 252 2.0 7.0 0.00 0.00 0.00 72 1011.5
20260507195601 53 263 2.0 6.0 0.00 0.00 0.00 72 1011.5
20260507194530 53 214 2.0 4.0 0.00 0.00 0.00 72 1011.5
20260507193518 53 264 2.0 4.0 0.00 0.00 0.00 71 1011.5
20260507192527 53 298 2.0 4.0 0.00 0.00 0.00 71 1011.3
20260507191535 54 286 1.0 4.0 0.00 0.00 0.00 71 1011.3
20260507190522 54 302 2.0 4.0 0.00 0.00 0.00 70 1011.3
20260507185530 54 297 1.0 4.0 0.00 0.00 0.00 71 1011.2
20260507184538 53 282 1.0 3.0 0.00 0.00 0.00 72 1011.1
20260507183527 53 276 1.0 3.0 0.00 0.00 0.00 75 1011.2
20260507182535 53 313 0.0 1.0 0.00 0.00 0.00 75 1011.2
20260507181524 53 322 0.0 1.0 0.00 0.00 0.00 74 1011.2
20260507180533 53 301 0.0 1.0 0.00 0.00 0.00 73 1011.2
20260507175522 53 324 0.0 1.0 0.00 0.00 0.00 73 1011.3
20260507174532 54 325 0.0 1.0 0.00 0.00 0.00 74 1011.2
20260507173520 54 233 0.0 2.0 0.00 0.00 0.00 76 1011.3
20260507172529 54 0.0 0.0 0.00 0.00 0.00 76 1011.2
20260507171517 53 0.0 0.0 0.00 0.00 0.00 78 1011.4
20260507170526 51 0.0 0.0 0.00 0.00 0.00 80 1011.3
20260507165535 51 331 0.0 1.0 0.00 0.00 0.00 82 1011.4
20260507164523 51 0.0 0.0 0.00 0.00 0.00 82 1011.5
20260507163532 50 326 0.0 1.0 0.00 0.00 0.00 82 1011.5
20260507162540 50 346 0.0 2.0 0.00 0.00 0.00 82 1011.6
20260507161528 50 24 1.0 3.0 0.00 0.00 0.00 84 1011.8
20260507160517 49 10 1.0 2.0 0.00 0.00 0.00 85 1011.8
20260507155525 49 7 1.0 2.0 0.00 0.00 0.00 85 1011.6
20260507154554 50 3 1.0 3.0 0.00 0.00 0.00 84 1012.0
20260507153543 51 51 2.0 6.0 0.00 0.00 0.00 81 1012.1
20260507152551 53 35 2.0 6.0 0.00 0.00 0.00 76 1012.0
20260507151519 54 350 1.0 2.0 0.00 0.00 0.00 74 1011.8
20260507150528 54 349 1.0 3.0 0.00 0.00 0.00 73 1011.9
20260507145516 56 326 2.0 6.0 0.00 0.00 0.00 67 1011.8
20260507144545 56 270 2.0 6.0 0.00 0.00 0.00 66 1011.6
20260507143534 57 253 2.0 6.0 0.00 0.00 0.00 65 1011.7
20260507142522 56 297 2.0 4.0 0.00 0.00 0.00 66 1011.8
20260507141530 56 275 2.0 6.0 0.00 0.00 0.00 65 1011.8
20260507140519 57 270 2.0 6.0 0.00 0.00 0.00 65 1011.9
20260507135527 57 231 2.0 4.0 0.00 0.00 0.00 66 1011.9
20260507134516 58 261 2.0 6.0 0.00 0.00 0.00 65 1012.0
20260507133524 57 294 2.0 4.0 0.00 0.00 0.00 66 1012.1
20260507132533 57 260 2.0 6.0 0.00 0.00 0.00 66 1012.1
20260507131541 57 271 2.0 8.0 0.00 0.00 0.00 65 1012.2
20260507130650 57 310 2.0 4.0 0.00 0.00 0.00 66 1012.4
20260507125518 57 219 1.0 6.0 0.00 0.00 0.00 65 1012.3
20260507124527 57 304 2.0 4.0 0.00 0.00 0.00 67 1012.4
20260507123516 55 284 2.0 6.0 0.00 0.00 0.00 69 1012.6
20260507122525 54 277 2.0 4.0 0.00 0.00 0.00 70 1012.5
20260507121533 54 317 1.0 3.0 0.00 0.00 0.00 71 1012.7
20260507120542 53 325 1.0 3.0 0.00 0.00 0.00 72 1012.6
20260507115531 52 293 1.0 4.0 0.00 0.00 0.00 73 1012.7
20260507114519 52 240 1.0 4.0 0.00 0.00 0.00 72 1012.7
20260507113528 52 301 1.0 3.0 0.00 0.00 0.00 73 1012.8
20260507112557 52 337 2.0 3.0 0.00 0.00 0.00 72 1012.8
20260507111525 52 305 1.0 2.0 0.00 0.00 0.00 73 1012.8
20260507110534 52 305 2.0 6.0 0.00 0.00 0.00 72 1012.8
20260507105520 52 282 1.0 4.0 0.00 0.00 0.00 73 1012.8
20260507104547 53 326 1.0 3.0 0.00 0.00 0.00 72 1012.8
20260507103556 53 288 2.0 7.0 0.00 0.00 0.00 69 1012.8
20260507102522 55 306 1.0 3.0 0.00 0.00 0.00 69 1012.7
20260507101530 54 342 0.0 2.0 0.00 0.00 0.00 68 1012.7
20260507100538 53 312 0.0 2.0 0.00 0.00 0.00 68 1012.8
20260507095527 54 345 0.0 2.0 0.00 0.00 0.00 66 1012.6
20260507094515 55 347 1.0 2.0 0.00 0.00 0.00 66 1012.6
20260507093524 54 336 1.0 2.0 0.00 0.00 0.00 66 1012.6
20260507092552 54 327 1.0 2.0 0.00 0.00 0.00 67 1012.8
20260507091541 54 284 1.0 3.0 0.00 0.00 0.00 65 1012.7
20260507090529 55 339 1.0 2.0 0.00 0.00 0.00 66 1012.8
20260507085518 54 34 1.0 2.0 0.00 0.00 0.00 66 1012.8
20260507084526 55 113 1.0 2.0 0.00 0.00 0.00 65 1012.9
20260507083535 54 310 1.0 2.0 0.00 0.00 0.00 65 1012.9
20260507082523 55 276 1.0 3.0 0.00 0.00 0.00 65 1012.9
20260507081532 54 324 1.0 2.0 0.00 0.00 0.00 66 1012.8
20260507080521 52 10 1.0 2.0 0.00 0.00 0.00 67 1012.9
20260507075530 52 334 1.0 3.0 0.00 0.00 0.00 68 1013.0
20260507074518 51 2 1.0 3.0 0.00 0.00 0.00 69 1013.1
20260507073527 52 295 1.0 3.0 0.00 0.00 0.00 69 1013.1
20260507072535 52 338 0.0 2.0 0.00 0.00 0.00 68 1013.1
20260507071524 52 289 0.0 2.0 0.00 0.00 0.00 69 1013.1
20260507070532 50 310 1.0 2.0 0.00 0.00 0.00 73 1013.0
20260507065520 49 16 1.0 3.0 0.00 0.00 0.00 73 1013.0
20260507064529 47 353 1.0 1.0 0.00 0.00 0.00 77 1013.1
20260507063517 46 339 0.0 2.0 0.00 0.00 0.00 79 1013.2
20260507062525 45 312 1.0 3.0 0.00 0.00 0.00 81 1013.2
20260507061533 44 0.0 0.0 0.00 0.00 0.00 83 1013.1
20260507060602 44 0.0 0.0 0.00 0.00 0.00 85 1013.0
20260507055530 43 321 0.0 1.0 0.00 0.00 0.00 86 1013.1
20260507054538 42 0.0 0.0 0.00 0.00 0.00 87 1013.2
20260507053525 42 0.0 0.0 0.00 0.00 0.00 87 1013.2
20260507052613 42 0.0 0.0 0.00 0.00 0.00 87 1013.2
20260507051520 41 0.0 0.0 0.00 0.00 0.00 86 1013.2
20260507050529 41 333 0.0 1.0 0.00 0.00 0.00 86 1013.2
20260507045516 41 0.0 0.0 0.00 0.00 0.00 85 1013.3
20260507044524 41 0.0 0.0 0.00 0.00 0.00 84 1013.3
20260507043533 42 0.0 0.0 0.00 0.00 0.00 83 1013.2
20260507042521 42 0.0 0.0 0.00 0.00 0.00 83 1013.1
20260507041549 43 12 0.0 1.0 0.00 0.00 0.00 82 1013.1
20260507040517 43 4 0.0 2.0 0.00 0.00 0.00 82 1013.0
20260507035526 43 3 1.0 2.0 0.00 0.00 0.00 81 1013.2
20260507034555 43 2 1.0 2.0 0.00 0.00 0.00 82 1013.1
20260507033522 43 7 1.0 3.0 0.00 0.00 0.00 82 1013.3
20260507032531 43 351 1.0 2.0 0.00 0.00 0.00 83 1013.3
20260507031519 43 46 0.0 2.0 0.00 0.00 0.00 83 1013.4
20260507030528 42 0.0 0.0 0.00 0.00 0.00 82 1013.4
20260507025556 42 0.0 0.0 0.00 0.00 0.00 82 1013.4
20260507024524 42 354 0.0 1.0 0.00 0.00 0.00 82 1013.5
20260507023533 42 0.0 0.0 0.00 0.00 0.00 81 1013.5
20260507022540 43 0.0 0.0 0.00 0.00 0.00 81 1013.5
20260507021529 43 345 0.0 1.0 0.00 0.00 0.00 81 1013.6
20260507020517 43 359 0.0 1.0 0.00 0.00 0.00 80 1013.5
20260507015526 43 357 0.0 1.0 0.00 0.00 0.00 80 1013.6
20260507014535 43 353 0.0 1.0 0.00 0.00 0.00 80 1013.6
20260507013524 43 2 0.0 1.0 0.00 0.00 0.00 79 1013.7
20260507012534 43 12 1.0 2.0 0.00 0.00 0.00 78 1013.8
20260507011522 44 8 0.0 1.0 0.00 0.00 0.00 77 1013.7
20260507010530 44 356 0.0 1.0 0.00 0.00 0.00 76 1013.8
20260507005519 44 319 0.0 2.0 0.00 0.00 0.00 76 1013.9
20260507004527 44 326 0.0 2.0 0.00 0.00 0.00 75 1013.9
20260507003535 45 328 1.0 3.0 0.00 0.00 0.00 75 1014.0
20260507002523 45 320 0.0 2.0 0.00 0.00 0.00 74 1014.1
20260507001532 45 318 1.0 3.0 0.00 0.00 0.00 74 1014.0
20260507000521 45 228 1.0 3.0 0.00 0.00 0.00 73 1014.0
20260506235530 45 307 1.0 6.0 0.00 0.00 0.00 73 1014.2
20260506234518 45 183 1.0 3.0 0.00 0.00 0.00 74 1014.2
20260506233526 45 27 1.0 3.0 0.00 0.00 0.00 74 1014.3
20260506232535 45 27 1.0 2.0 0.00 0.00 0.00 73 1014.4
20260506231543 46 74 1.0 4.0 0.00 0.00 0.00 73 1014.4
20260506230532 46 35 1.0 3.0 0.00 0.00 0.00 73 1014.4
20260506225520 46 349 1.0 3.0 0.00 0.00 0.00 73 1014.4
20260506224529 46 18 2.0 4.0 0.00 0.00 0.00 72 1014.4
20260506223538 46 5 1.0 4.0 0.00 0.00 0.00 72 1014.4
20260506222546 46 40 1.0 3.0 0.00 0.00 0.00 73 1014.5